Flag for U.S.A. Weather past 2 weeks in Worcester, Massachusetts, U.S.A.

Now
54 °F

Clear.


Feels Like: 51 °F
Forecast: 57 / 72 °F
Wind: 12 mph from Northwest

Location: Worcester Regional Airport

Current Time: Aug 29, 2014 at 4:47:10 AM

Latest Report: Aug 29, 2014 at 3:54 AM


Visibility: 10 mi

Pressure: 30.07 "Hg

Humidity: 80%

Dew point: 48 °F

Location of WorcesterLocation

Historic Weather in Worcester — Graph

°F

Worcester temperature yesterday

Maximum temperature yesterday: 73 °F (at 11:54 AM)
Minimum temperature yesterday: 59 °F (at 11:54 PM)
Average temperature yesterday: 67 °F

Past Weeks' High & Low Weather Summary

 TemperatureHumidityPressure
High83 °F (Aug 25, 1:54 PM)100% (Aug 22, 1:54 AM)30.19 "Hg (Aug 22, 1:54 AM)
Low54 °F (Aug 15, 4:54 AM)37% (Aug 26, 3:54 PM)29.72 "Hg (Aug 14, 3:54 AM)
Average66 °F70%30.00 "Hg
* Reported Aug 14 3:54 AM — Aug 29 3:54 AM, Worcester, Weather by CustomWeather, © 2014

Note: Actual official high and low records may vary slightly from our data, if they occured in-between our weather recording intervals... More about our weather records

Advertising

Worcester weather history for previous 24 hours

 ConditionsComfort  
Time TempWeatherWind HumidityBarometerVisibility
3:54 AM
Aug 29
54 °FClear.12 mph80%30.07 "Hg10 mi
2:54 AM54 °FClear.10 mph80%30.06 "Hg10 mi
1:54 AM55 °FClear.10 mph77%30.05 "Hg10 mi
12:54 AM58 °FClear.13 mph67%30.04 "Hg10 mi
11:54 PM
Aug 28
59 °FClear.13 mph64%30.02 "Hg10 mi
10:54 PM61 °FClear.12 mph62%30.01 "Hg10 mi
9:54 PM62 °FClear.9 mph62%30.01 "Hg10 mi
8:54 PM62 °FPassing clouds.8 mph67%29.98 "Hg10 mi
7:54 PM65 °FPartly sunny.12 mph56%29.95 "Hg10 mi
6:54 PM67 °FOvercast.13 mph53%29.92 "Hg10 mi
5:54 PM69 °FOvercast.8 mph53%29.90 "Hg10 mi
4:54 PM71 °FPartly sunny.15 mph45%29.88 "Hg10 mi
3:54 PM73 °FPartly sunny.16 mph46%29.85 "Hg10 mi
2:54 PM73 °FPartly sunny.17 mph46%29.85 "Hg10 mi
1:54 PM73 °FOvercast.8 mph48%29.84 "Hg10 mi
12:54 PM73 °FPassing clouds.14 mph46%29.84 "Hg10 mi
11:54 AM73 °FScattered clouds.14 mph50%29.85 "Hg10 mi
10:54 AM72 °FPartly sunny.8 mph55%29.86 "Hg10 mi
9:54 AM69 °FScattered clouds.10 mph63%29.88 "Hg10 mi
8:54 AM67 °FSunny.13 mph68%29.88 "Hg10 mi
7:54 AM65 °FOvercast.13 mph73%29.87 "Hg10 mi
6:54 AM64 °FPassing clouds.10 mph75%29.85 "Hg10 mi
5:54 AM64 °FClear.7 mph81%29.85 "Hg10 mi
4:54 AM65 °FClear.9 mph81%29.84 "Hg10 mi
Weather by CustomWeather, © 2014

See weather overviewHow to use our weather pages